Total_Precipitation_Accumulation
1.64 1.57 1.48 1.28 1.15 1.01 0.88 0.88 0.95 0.85 0.78 0.72 0.62 0.55 0.53 0.50 0.45 0.42 0.41 0.44 0.48 0.70 0.92 1.06 1.10 1.17 1.23 1.20 1.16 1.11 0.99 0.92 0.89 0.87 0.83 0.78 0.77 0.75 0.75 0.74 0.72 0.70 0.71
1.78 1.75 1.62 1.43 1.29 1.14 0.98 0.89 0.92 0.95 0.91 0.87 0.79 0.70 0.66 0.59 0.52 0.48 0.43 0.45 0.49 0.57 0.77 0.92 1.04 1.20 1.41 1.45 1.40 1.30 1.15 1.03 0.99 0.95 0.95 0.91 0.86 0.82 0.82 0.81 0.82 0.82 0.81
1.90 1.90 1.78 1.55 1.42 1.38 1.25 1.14 1.12 1.11 1.02 0.89 0.81 0.78 0.75 0.67 0.60 0.57 0.52 0.49 0.48 0.52 0.66 0.84 0.95 1.14 1.36 1.53 1.58 1.53 1.35 1.15 1.07 1.03 1.00 0.99 0.97 0.94 0.98 0.99 0.92 0.89 0.92
2.04 2.07 1.95 1.72 1.71 1.78 1.64 1.44 1.34 1.25 1.10 0.99 0.89 0.87 0.80 0.74 0.64 0.60 0.58 0.53 0.49 0.50 0.62 0.84 0.94 1.05 1.21 1.40 1.57 1.65 1.59 1.44 1.30 1.18 1.09 1.06 1.02 1.01 1.07 1.12 1.08 1.01 1.06
2.03 2.04 2.03 1.94 1.96 2.00 1.93 1.74 1.61 1.52 1.31 1.18 1.09 1.06 1.03 0.95 0.85 0.74 0.67 0.67 0.64 0.63 0.75 0.95 1.04 1.04 1.06 1.20 1.39 1.55 1.60 1.55 1.42 1.29 1.21 1.15 1.08 1.07 1.11 1.14 1.10 1.07 1.07
1.99 1.98 1.95 2.06 2.13 2.12 2.06 2.00 1.85 1.75 1.63 1.51 1.42 1.29 1.26 1.20 1.04 0.86 0.76 0.75 0.76 0.79 0.89 0.95 0.98 1.06 1.08 0.99 1.08 1.33 1.53 1.59 1.49 1.39 1.31 1.24 1.20 1.18 1.18 1.19 1.19 1.18 1.14
2.21 2.13 1.96 2.03 2.17 2.07 1.96 2.03 2.10 2.08 1.98 1.85 1.78 1.60 1.48 1.36 1.20 0.96 0.80 0.77 0.79 0.85 0.90 0.93 0.97 0.89 0.79 0.74 0.81 0.99 1.26 1.50 1.57 1.53 1.40 1.30 1.27 1.31 1.33 1.35 1.37 1.36 1.36
2.22 2.22 2.20 2.14 2.24 2.25 2.16 2.11 2.18 2.27 2.17 2.13 2.08 1.99 1.78 1.63 1.34 1.07 0.91 0.84 0.82 0.87 0.89 0.88 0.88 0.85 0.74 0.68 0.68 0.78 1.02 1.34 1.54 1.62 1.55 1.44 1.38 1.43 1.51 1.58 1.61 1.56 1.57
2.29 2.20 2.24 2.28 2.29 2.33 2.26 2.19 2.18 2.24 2.27 2.19 2.12 2.23 1.96 1.62 1.37 1.20 1.01 0.91 0.89 0.90 0.92 0.93 0.90 0.87 0.81 0.74 0.71 0.75 0.82 1.02 1.35 1.67 1.84 1.80 1.71 1.66 1.70 1.79 1.82 1.80 1.75
2.35 2.31 2.25 2.24 2.31 2.30 2.25 2.30 2.34 2.23 2.26 2.27 2.22 2.05 1.84 1.58 1.48 1.34 1.18 1.08 1.00 0.95 0.95 0.95 0.91 0.86 0.86 0.83 0.82 0.85 0.87 0.91 1.16 1.56 1.93 2.09 2.05 1.99 2.03 2.14 2.22 2.17 2.03
2.36 2.28 2.27 2.24 2.21 2.24 2.25 2.29 2.35 2.39 2.31 2.24 2.19 2.13 2.02 1.78 1.59 1.53 1.37 1.26 1.24 1.11 1.02 0.98 0.97 0.94 0.90 0.89 0.86 0.92 1.00 1.00 1.16 1.43 1.77 2.05 2.20 2.28 2.34 2.40 2.47 2.46 2.31
2.39 2.26 2.23 2.18 2.16 2.15 2.15 2.23 2.32 2.40 2.38 2.26 2.16 2.02 1.98 1.88 1.72 1.67 1.51 1.32 1.32 1.23 1.14 1.07 1.03 1.01 1.01 1.02 1.04 1.18 1.14 1.19 1.28 1.41 1.69 1.97 2.15 2.25 2.43 2.60 2.67 2.64 2.57
2.47 2.26 2.21 2.21 2.18 2.11 2.13 2.26 2.37 2.38 2.40 2.33 2.25 2.14 2.02 1.88 1.78 1.81 1.79 1.56 1.40 1.26 1.23 1.19 1.11 1.08 1.10 1.14 1.21 1.37 1.29 1.31 1.36 1.46 1.71 1.98 2.07 2.12 2.20 2.36 2.58 2.64 2.63
2.47 2.41 2.34 2.31 2.29 2.24 2.18 2.20 2.22 2.25 2.30 2.27 2.19 2.12 2.04 1.93 1.91 1.91 1.92 1.99 1.85 1.53 1.36 1.26 1.16 1.17 1.22 1.28 1.41 1.52 1.33 1.43 1.38 1.39 1.53 1.72 1.78 1.78 1.86 2.06 2.35 2.55 2.58
2.14 2.31 2.34 2.30 2.23 2.20 2.18 2.17 2.13 2.06 2.12 2.13 2.10 2.04 1.95 1.82 1.84 1.87 1.85 1.96 2.13 1.94 1.51 1.20 1.13 1.14 1.20 1.24 1.41 1.35 1.25 1.43 1.42 1.36 1.37 1.40 1.40 1.40 1.41 1.51 1.72 1.97 2.13
1.73 1.89 2.07 2.15 2.14 2.11 2.08 2.10 2.08 1.99 2.01 1.94 1.88 1.90 1.87 1.76 1.69 1.71 1.80 1.86 1.94 2.00 1.72 1.20 1.05 1.07 1.16 1.20 1.34 1.22 1.16 1.38 1.35 1.31 1.27 1.24 1.24 1.23 1.22 1.24 1.32 1.51 1.66
1.51 1.59 1.72 1.84 1.91 1.95 1.96 1.97 1.93 1.89 1.89 1.86 1.80 1.75 1.71 1.69 1.72 1.68 1.70 1.77 1.86 1.92 1.85 1.36 1.12 1.11 1.22 1.26 1.28 1.21 1.14 1.15 1.15 1.30 1.23 1.18 1.15 1.12 1.13 1.15 1.18 1.24 1.34
1.31 1.32 1.40 1.48 1.56 1.61 1.65 1.70 1.72 1.71 1.71 1.72 1.69 1.69 1.64 1.62 1.62 1.62 1.67 1.70 1.74 1.78 1.81 1.58 1.27 1.17 1.17 1.17 1.18 1.18 1.14 1.09 1.03 1.22 1.20 1.17 1.14 1.09 1.07 1.08 1.11 1.14 1.17
1.32 1.23 1.20 1.25 1.30 1.34 1.39 1.42 1.44 1.48 1.49 1.50 1.55 1.58 1.57 1.62 1.66 1.62 1.59 1.58 1.54 1.55 1.61 1.61 1.38 1.17 1.11 1.09 1.14 1.14 1.09 1.04 0.97 1.05 1.12 1.18 1.18 1.14 1.13 1.11 1.14 1.13 1.09
1.22 1.25 1.15 1.09 1.11 1.17 1.23 1.29 1.32 1.35 1.37 1.41 1.45 1.48 1.50 1.53 1.54 1.55 1.59 1.57 1.53 1.52 1.51 1.55 1.47 1.32 1.24 1.19 1.21 1.24 1.22 1.12 1.05 0.96 1.05 1.10 1.19 1.19 1.12 1.04 1.00 1.03 1.05
1.08 1.15 1.15 1.08 1.04 1.07 1.13 1.19 1.23 1.27 1.29 1.33 1.36 1.38 1.43 1.55 1.60 1.58 1.56 1.55 1.60 1.70 1.70 1.71 1.60 1.41 1.26 1.22 1.20 1.12 1.18 1.17 1.15 1.09 1.07 1.02 0.97 0.94 0.97 1.00 0.99 0.99 1.04
1.00 1.08 1.13 1.14 1.13 1.14 1.36 1.36 1.27 1.27 1.29 1.30 1.29 1.26 1.28 1.36 1.38 1.45 1.49 1.49 1.59 1.75 1.87 1.87 1.68 1.40 1.14 1.03 1.01 1.08 1.21 1.31 1.26 1.00 0.97 1.01 0.97 0.99 0.94 0.92 1.06 1.04 1.03
1.05 1.13 1.20 1.23 1.23 1.30 1.44 1.37 1.35 1.23 1.22 1.23 1.21 1.18 1.15 1.14 1.19 1.10 1.20 1.28 1.33 1.48 1.58 1.53 1.45 1.20 1.05 1.00 1.14 1.27 1.25 1.25 1.10 0.93 1.02 1.13 1.07 1.07 0.97 0.98 1.10 1.03 1.03
1.25 1.31 1.37 1.39 1.39 1.40 1.42 1.35 1.37 1.18 1.09 1.05 1.00 0.95 0.94 0.92 0.94 1.02 1.08 1.16 1.09 1.07 1.10 1.08 1.08 1.03 1.01 1.06 1.26 1.46 1.47 1.44 1.22 1.06 1.06 1.19 1.04 1.02 1.01 1.02 1.10 1.05 1.06
1.36 1.32 1.32 1.32 1.30 1.27 1.27 1.23 1.22 1.07 1.00 0.93 0.85 0.80 0.81 0.78 0.94 1.11 1.13 1.17 1.01 0.91 0.98 1.09 1.17 1.20 1.31 1.35 1.39 1.63 1.79 1.87 1.64 1.20 1.01 1.08 0.99 0.95 1.01 1.03 1.04 1.07 1.05
1.13 1.08 1.04 1.01 0.99 0.96 1.00 1.01 1.04 0.99 0.94 0.84 0.77 0.74 0.83 0.82 0.98 1.12 1.07 1.11 1.06 0.89 0.89 0.97 1.03 1.08 1.08 1.16 1.33 1.34 1.53 1.86 1.72 1.37 0.94 1.03 1.07 1.16 1.41 1.10 0.96 0.95 0.97